Location: Newark
(52.5694°N, 1.3190°W)
Time: 01:56:42
(UTC+00:00)

N. Korean satellite - Pass Details

Date: 25 January 2020
Orbit: 456 x 505 km, 97.2° (Epoch: 21 February)

Event Time Altitude Azimuth Distance (km) Brightness Sun altitude
Rises 17:55:57 0° 204° (SSW) 2,465 10.8 -11.8°
Reaches altitude 10° 17:58:28 10° 224° (SW) 1,598 10.2 -12.1°
Maximum altitude 18:00:52 18° 269° (W) 1,209 9.7 -12.5°
Drops below altitude 10° 18:03:17 10° 313° (NW) 1,614 9.6 -12.8°
Sets 18:05:51 0° 334° (NNW) 2,501 10.3 -13.2°
